[[{"header":{"parameterUnit":"m.s-1","parameterCategory":1,"la1":30.2992,"la2":30.254,"lo1":-89.0895,"lo2":-89.0443,"dy":0.0025,"dx":0.0025,"nx":19,"ny":19,"refTime":"2026-05-14T03:00:00:Z","depth":0,"parameterNumber":2,"parameterNumberName":"U-component_of_WINDS"},"data":[0,0,0,1.6232,1.6235,1.6365,1.6366,1.6532,1.6533,0,0,0,0,0,0,0,0,0,0,0,1.6191,1.6192,1.6232,1.6235,1.6365,1.6366,1.6532,1.6533,0,0,0,0,0,0,0,0,0,0,0,1.619,1.6192,1.6193,1.6236,1.6365,1.6366,1.6531,1.6434,0,0,0,0,0,0,0,0,0,0,1.6308,1.6266,1.6191,1.6193,1.6237,1.6365,1.6366,1.6429,1.644,1.6472,0,1.6498,0,1.6518,1.6544,1.6545,0,0,0,1.6238,1.6257,1.6295,1.6193,1.6238,1.6365,1.6307,1.6435,1.6447,1.6486,1.65,1.6506,1.6521,1.6545,1.6546,1.672,1.672,0,0,1.6231,1.6213,1.6286,1.6302,1.6279,1.6303,1.6311,1.6443,1.6457,1.6501,1.651,1.6524,1.6546,1.6548,1.6719,1.672,0,0,0,1.6208,1.6208,1.6242,1.6295,1.6319,1.6307,1.6316,1.6451,1.6464,1.6512,1.6525,1.6547,1.6549,1.6718,1.6719,1.6737,0,0,0,1.6204,1.6195,1.6239,1.623,1.6316,1.6386,1.6322,1.6455,1.647,1.6525,1.6547,1.6551,1.6717,1.6719,1.6735,1.6748,0,0,0,1.6184,1.6192,1.621,1.6228,1.6283,1.6384,1.6405,1.6459,1.6478,1.6545,1.6551,1.6717,1.6719,1.6733,1.6745,1.6791,0,0,0,1.6157,1.6222,1.621,1.6289,1.6282,1.6393,1.6404,1.6487,1.6546,1.6548,1.6718,1.6719,1.6732,1.6743,1.6789,1.6827,1.6841,0,0,1.623,1.6231,1.6279,1.6272,1.638,1.6375,1.6487,1.6558,1.6581,1.6673,1.6677,1.6735,1.6745,1.6791,1.6921,1.6931,0,0,0,1.6296,1.6331,1.6364,1.6419,1.6474,1.6525,1.6581,1.6608,1.6687,1.6624,1.6764,1.677,1.6798,1.6817,1.6826,1.6853,1.6727,1.6726,1.6726,1.6375,1.6401,1.6484,1.6527,1.6581,1.664,1.6687,1.6734,1.6744,1.6777,1.6805,1.688,1.6902,1.6909,1.6936,1.6826,1.6826,1.6826,1.6826,1.6486,1.6541,1.6555,1.6641,1.667,1.6743,1.6804,1.6809,1.6884,1.6861,1.6886,1.686,1.692,1.6945,1.6828,1.6827,1.6827,1.6827,1.6827,1.6542,1.6573,1.6605,1.669,1.6754,1.6796,1.6868,1.6891,1.6914,1.6939,1.6974,1.6973,1.6978,1.6954,1.6954,1.6954,1.6954,1.6955,1.6955,1.6588,1.6623,1.668,1.6747,1.6788,1.6845,1.6907,1.6949,1.7001,1.7013,1.7014,1.7023,1.692,1.6895,1.6959,1.6958,1.6958,1.6957,1.6957,1.6694,1.6674,1.6761,1.6802,1.6886,1.695,1.6979,1.7063,1.7101,1.7137,1.7142,1.7061,1.7064,1.7057,1.7036,1.7134,1.7134,1.7134,1.7134,1.6742,1.6746,1.6843,1.6907,1.6974,1.701,1.7113,1.7164,1.7214,1.724,1.723,1.7204,1.7196,1.7204,1.7193,1.7175,1.7305,1.7305,1.7306,1.6811,1.6823,1.6903,1.6951,1.7019,1.7078,1.7177,1.7254,1.7306,1.7313,1.7262,1.7255,1.7214,1.7199,1.7204,1.7188,1.7154,0,0]},{"header":{"parameterUnit":"m.s-1","parameterCategory":1,"la1":30.2992,"la2":30.254,"lo1":-89.0895,"lo2":-89.0443,"dy":0.0025,"dx":0.0025,"nx":19,"ny":19,"refTime":"2026-05-14T03:00:00:Z","depth":0,"parameterNumber":3,"parameterNumberName":"V-component_of_WINDS"},"data":[0,0,0,-0.9568,-0.9566,-0.9439,-0.9439,-0.9252,-0.925,0,0,0,0,0,0,0,0,0,0,0,-0.9592,-0.959,-0.9569,-0.9565,-0.9439,-0.9439,-0.9252,-0.925,0,0,0,0,0,0,0,0,0,0,0,-0.9593,-0.9591,-0.9589,-0.9565,-0.944,-0.9439,-0.9253,-0.9357,0,0,0,0,0,0,0,0,0,0,-0.9483,-0.9492,-0.9591,-0.9589,-0.9564,-0.944,-0.9439,-0.9362,-0.935,-0.9299,0,-0.9251,0,-0.9248,-0.9236,-0.9236,0,0,0,-0.9575,-0.9502,-0.9481,-0.9588,-0.9563,-0.944,-0.9499,-0.9356,-0.9342,-0.9283,-0.9249,-0.9243,-0.9245,-0.9235,-0.9234,-0.8912,-0.891,0,0,-0.9582,-0.9561,-0.949,-0.9471,-0.9491,-0.9503,-0.9495,-0.9348,-0.9308,-0.9248,-0.9239,-0.9242,-0.9234,-0.9232,-0.8914,-0.8911,0,0,0,-0.9595,-0.9566,-0.9549,-0.9478,-0.9458,-0.9499,-0.949,-0.9315,-0.9311,-0.9237,-0.924,-0.9232,-0.923,-0.8916,-0.8913,-0.8796,0,0,0,-0.96,-0.9574,-0.9551,-0.9537,-0.946,-0.9385,-0.946,-0.9322,-0.9306,-0.9241,-0.9232,-0.9228,-0.8918,-0.8914,-0.8804,-0.8744,0,0,0,-0.9605,-0.9575,-0.9552,-0.9537,-0.9482,-0.9388,-0.9376,-0.9319,-0.9307,-0.9235,-0.9227,-0.8919,-0.8915,-0.8811,-0.8755,-0.8652,0,0,0,-0.9604,-0.9449,-0.955,-0.9378,-0.9483,-0.9319,-0.9378,-0.9255,-0.9181,-0.9231,-0.8918,-0.8913,-0.8814,-0.8762,-0.866,-0.8561,-0.8518,0,0,-0.9397,-0.9423,-0.9324,-0.9411,-0.9223,-0.9339,-0.9134,-0.9084,-0.9094,-0.8972,-0.8964,-0.8802,-0.8756,-0.8654,-0.8291,-0.8257,0,0,0,-0.9252,-0.918,-0.9135,-0.9064,-0.9024,-0.8984,-0.8968,-0.8949,-0.8847,-0.9028,-0.8739,-0.8712,-0.8653,-0.8606,-0.8577,-0.8527,-0.8891,-0.8892,-0.8892,-0.8927,-0.8952,-0.879,-0.8799,-0.873,-0.8716,-0.8661,-0.8634,-0.8677,-0.8609,-0.8571,-0.8348,-0.8293,-0.8272,-0.8219,-0.8523,-0.8523,-0.8522,-0.8522,-0.8625,-0.8527,-0.8592,-0.8457,-0.8484,-0.837,-0.8351,-0.8386,-0.8283,-0.8378,-0.8327,-0.8427,-0.8234,-0.8189,-0.8514,-0.8515,-0.8516,-0.8517,-0.8518,-0.8413,-0.837,-0.8353,-0.8255,-0.8175,-0.8191,-0.809,-0.8118,-0.8143,-0.8093,-0.8056,-0.8058,-0.8061,-0.8074,-0.8073,-0.8072,-0.8072,-0.8071,-0.8071,-0.8199,-0.8184,-0.8096,-0.8042,-0.8001,-0.7951,-0.7937,-0.7897,-0.7859,-0.7887,-0.7887,-0.7936,-0.8212,-0.8279,-0.8059,-0.8061,-0.8062,-0.8063,-0.8064,-0.7879,-0.7957,-0.7821,-0.778,-0.772,-0.7639,-0.7678,-0.7594,-0.7564,-0.7513,-0.7575,-0.7775,-0.7803,-0.7826,-0.7882,-0.7571,-0.7571,-0.7571,-0.7571,-0.7698,-0.7717,-0.7585,-0.7518,-0.7455,-0.7478,-0.7322,-0.731,-0.731,-0.7293,-0.7343,-0.742,-0.7443,-0.7457,-0.7488,-0.754,-0.715,-0.715,-0.7149,-0.7502,-0.7516,-0.7378,-0.7382,-0.7338,-0.7298,-0.7153,-0.7071,-0.7087,-0.7133,-0.728,-0.7298,-0.7423,-0.7463,-0.7508,-0.7556,-0.7653,0,0]}]]